[[{"header":{"parameterUnit":"m.s-1","parameterCategory":1,"la1":30.2991,"la2":30.254,"lo1":-89.0895,"lo2":-89.0444,"dy":0.0017,"dx":0.0017,"nx":28,"ny":28,"refTime":"2024-07-29T09:00:00:Z","depth":0,"parameterNumber":2,"parameterNumberName":"U-component_of_WINDS"},"data":[0,0,0,0,0,0,0,0,0,0,0,0,0,0,0,0,0,0,0,0,0,0,0,0,0,0,0,0,0,0,0,0,0,0,0,0,0,0,0,0,0,0,0,0,0,0,0,0,0,0,0,0,0,0,0,0,0,0,2.5705,2.5707,0,2.585,2.5851,2.5853,2.5851,2.5849,2.5847,2.5845,2.5993,2.5999,2.6005,0,0,0,0,0,0,0,0,0,0,0,0,0,2.5427,2.5432,2.5705,2.5707,2.5709,2.5849,2.5851,2.5853,2.5851,2.5849,2.5846,2.5844,2.5992,2.5998,2.6005,0,0,0,0,0,0,0,0,0,0,0,0,0,2.5557,2.5433,2.5705,2.5725,2.5728,2.5849,2.5851,2.5854,2.5851,2.5849,2.5846,2.5843,2.5989,2.5998,2.6006,2.6118,0,0,2.6033,2.6036,0,0,0,0,0,0,0,0,2.555,2.5567,2.572,2.5723,2.5727,2.5829,2.5808,2.5942,2.5852,2.5805,2.5845,2.5842,2.5941,2.5954,2.5987,2.6124,2.6131,2.6033,2.6039,2.6042,2.6045,0,0,0,0,0,0,0,2.5541,2.5561,2.5762,2.5722,2.5727,2.5726,2.5741,2.5833,2.5887,2.5808,2.5809,2.5826,2.5943,2.5979,2.599,2.6133,2.6033,2.6041,2.6046,2.6049,2.6367,2.637,0,0,0,0,0,0,2.5527,2.5553,2.5758,2.5767,2.5629,2.5733,2.575,2.5799,2.5886,2.5897,2.5828,2.5825,2.5965,2.598,2.5996,2.613,2.6042,2.605,2.6055,2.6364,2.6368,2.6371,0,0,0,0,0,0,2.5521,2.5546,2.5752,2.566,2.5686,2.5741,2.5796,2.5804,2.584,2.5901,2.5911,2.5855,2.5964,2.5984,2.6087,2.6136,2.6054,2.6062,2.636,2.6365,2.637,2.6401,0,0,0,0,0,0,2.5513,2.5544,2.5587,2.5661,2.5691,2.5841,2.5799,2.5809,2.5855,2.5852,2.5929,2.5939,2.5963,2.6074,2.6095,2.6146,2.6069,2.6356,2.6362,2.6368,2.6396,2.6407,2.6416,0,0,0,0,0,2.5504,2.5591,2.5589,2.5614,2.5746,2.5844,2.5861,2.5887,2.5859,2.5902,2.5941,2.5936,2.6127,2.6084,2.6109,2.6163,2.6353,2.636,2.6367,2.6392,2.6405,2.6416,0,0,0,0,0,0,2.5521,2.5601,2.56,2.5714,2.5772,2.5843,2.5899,2.59,2.5967,2.5962,2.5991,2.6009,2.6111,2.6147,2.6099,2.6274,2.6236,2.6249,2.6247,2.6259,2.6269,2.6258,2.6076,0,0,0,0,0,2.5538,2.5611,2.5676,2.577,2.5799,2.5844,2.5887,2.5902,2.5964,2.5988,2.6035,2.6095,2.6168,2.6216,2.6287,2.6401,2.6417,2.645,2.646,2.6468,2.6478,2.654,2.6555,2.6395,2.6395,2.6395,0,0,2.5574,2.5627,2.5671,2.5775,2.5822,2.5896,2.5865,2.5945,2.6,2.6001,2.61,2.6137,2.6205,2.6314,2.6365,2.6348,2.6526,2.6477,2.6483,2.6489,2.6549,2.6564,2.6577,2.64,2.6399,2.6399,0,0,2.5677,2.5725,2.5808,2.5855,2.5926,2.5955,2.5974,2.6046,2.6069,2.617,2.6172,2.6237,2.6363,2.6411,2.6452,2.6572,2.657,2.6594,2.6645,2.6705,2.6718,2.6729,2.677,2.6785,2.6605,2.6605,2.6605,0,2.5713,2.5825,2.585,2.593,2.5975,2.5978,2.6062,2.6106,2.6197,2.6228,2.6207,2.6364,2.6411,2.653,2.6559,2.6593,2.6615,2.6586,2.6714,2.6725,2.6736,2.6776,2.6792,2.6607,2.6607,2.6607,2.6606,0,2.5865,2.5942,2.6,2.6086,2.6138,2.622,2.6256,2.6306,2.6316,2.6346,2.6448,2.6504,2.6585,2.6615,2.6625,2.6735,2.6722,2.6708,2.667,2.6753,2.6791,2.6807,2.6611,2.661,2.6609,2.6608,0,0,2.5984,2.6082,2.6103,2.6141,2.6219,2.6279,2.636,2.6439,2.648,2.6542,2.661,2.6715,2.6702,2.6748,2.6764,2.6817,2.6906,2.6796,2.6798,2.6813,2.7029,2.7039,2.7056,2.6905,2.6908,2.6911,2.7023,0,2.6094,2.6238,2.6262,2.6387,2.6458,2.6462,2.6532,2.6587,2.6617,2.6682,2.6715,2.6789,2.6766,2.6794,2.6846,2.6884,2.695,2.6877,2.6968,2.6971,2.695,2.7076,2.7088,2.7191,2.7038,2.7041,2.7042,0,2.6243,2.6308,2.644,2.6506,2.6537,2.66,2.6673,2.6735,2.6797,2.6815,2.6866,2.6875,2.6959,2.6918,2.7032,2.6982,2.702,2.7044,2.7049,2.7058,2.7011,2.7088,2.7225,2.724,2.7066,2.7064,2.7063,0,2.6315,2.6435,2.6529,2.6562,2.6643,2.6687,2.6722,2.6781,2.6826,2.6891,2.692,2.6993,2.7033,2.7089,2.7118,2.7086,2.723,2.7192,2.7247,2.7246,2.7277,2.7274,2.7421,2.7303,2.7303,2.7303,2.7302,0,2.6435,2.6516,2.6563,2.6621,2.671,2.6737,2.6825,2.6859,2.6912,2.6976,2.6984,2.7043,2.7078,2.7143,2.7166,2.7256,2.7274,2.7291,2.7296,2.729,2.7288,2.7315,2.7309,2.7307,2.7306,2.7305,2.7304,0,2.6531,2.6566,2.6668,2.6735,2.6754,2.6817,2.6874,2.693,2.696,2.7041,2.7062,2.7109,2.7185,2.7219,2.7314,2.7329,2.7432,2.7432,2.7411,2.7412,2.7465,2.7459,2.7634,2.7658,2.7525,2.7526,2.7527,0,2.6605,2.6667,2.674,2.6784,2.682,2.689,2.6936,2.6964,2.7011,2.7085,2.7132,2.7209,2.7271,2.7393,2.7436,2.7508,2.7509,2.7566,2.752,2.7512,2.7509,2.7504,2.751,2.7574,2.7575,2.7576,2.7577,0,2.6733,2.6747,2.6812,2.6884,2.6938,2.6996,2.7053,2.7088,2.7125,2.7177,2.7255,2.7304,2.74,2.7475,2.7549,2.7586,2.7587,2.7591,2.7607,2.7601,2.7586,2.7593,2.7432,2.7587,2.7586,2.7585,2.7584,2.7584,2.682,2.6874,2.6934,2.7006,2.7051,2.7104,2.7159,2.7195,2.726,2.734,2.7353,2.7436,2.7494,2.7594,2.7633,2.7698,2.7684,2.7708,2.7714,2.7719,2.7722,2.7576,2.7712,2.7711,2.7711,2.7711,2.7711,0,2.6947,2.6985,2.7051,2.713,2.7186,2.7182,2.7244,2.7292,2.7364,2.7419,2.748,2.7569,2.7642,2.7689,2.7762,2.7805,2.7808,2.7823,2.782,2.7828,2.7731,2.7709,2.782,2.782,2.782,2.782,2.782,2.782,2.7019,2.7111,2.7131,2.7244,2.7282,2.7363,2.7398,2.7446,2.7489,2.7588,2.7648,2.7678,2.773,2.7807,2.7873,2.7885,2.7911,2.7927,2.7939,2.7847,2.7835,2.7824,2.7804,2.7933,2.7933,2.8031,2.8031,2.8032]},{"header":{"parameterUnit":"m.s-1","parameterCategory":1,"la1":30.2991,"la2":30.254,"lo1":-89.0895,"lo2":-89.0444,"dy":0.0017,"dx":0.0017,"nx":28,"ny":28,"refTime":"2024-07-29T09:00:00:Z","depth":0,"parameterNumber":3,"parameterNumberName":"V-component_of_WINDS"},"data":[0,0,0,0,0,0,0,0,0,0,0,0,0,0,0,0,0,0,0,0,0,0,0,0,0,0,0,0,0,0,0,0,0,0,0,0,0,0,0,0,0,0,0,0,0,0,0,0,0,0,0,0,0,0,0,0,0,0,4.7749,4.775,0,4.781,4.7811,4.7811,4.7739,4.7736,4.7734,4.7731,4.779,4.7794,4.7798,0,0,0,0,0,0,0,0,0,0,0,0,0,4.7565,4.7569,4.7749,4.775,4.7751,4.781,4.7811,4.7811,4.774,4.7736,4.7733,4.773,4.7788,4.7793,4.7798,0,0,0,0,0,0,0,0,0,0,0,0,0,4.7637,4.757,4.7749,4.7722,4.772,4.781,4.7811,4.7812,4.774,4.7736,4.7732,4.7728,4.7787,4.7793,4.7799,4.7917,0,0,4.7817,4.782,0,0,0,0,0,0,0,0,4.7633,4.7644,4.7725,4.7724,4.7722,4.7763,4.7767,4.7847,4.7741,4.7733,4.7731,4.7726,4.7784,4.779,4.781,4.7919,4.7922,4.7818,4.7822,4.7824,4.7826,0,0,0,0,0,0,0,4.7629,4.7641,4.7773,4.7726,4.7725,4.7705,4.7711,4.7782,4.778,4.7733,4.7728,4.7736,4.7782,4.7804,4.7811,4.7923,4.7818,4.7823,4.7827,4.7829,4.8129,4.8133,0,0,0,0,0,0,4.7627,4.7638,4.7771,4.7775,4.7667,4.7712,4.7718,4.7754,4.7779,4.7779,4.774,4.7733,4.7796,4.7804,4.7813,4.7951,4.7824,4.783,4.7833,4.8125,4.813,4.8135,0,0,0,0,0,0,4.7624,4.764,4.7769,4.7705,4.772,4.7719,4.776,4.7757,4.7779,4.7784,4.7783,4.7763,4.7793,4.7804,4.7891,4.7952,4.7833,4.7838,4.812,4.8126,4.8132,4.8229,0,0,0,0,0,0,4.7619,4.7639,4.7685,4.7707,4.7724,4.7848,4.7764,4.7761,4.779,4.7782,4.7806,4.7806,4.7791,4.7882,4.7897,4.7958,4.7843,4.8114,4.8123,4.813,4.8221,4.8238,4.8253,0,0,0,0,0,4.7612,4.771,4.7688,4.7705,4.7782,4.7852,4.7861,4.7843,4.7796,4.7841,4.7844,4.7805,4.7943,4.7892,4.7908,4.7972,4.811,4.812,4.813,4.8213,4.8235,4.8253,0,0,0,0,0,0,4.7695,4.7712,4.7688,4.7796,4.7823,4.7839,4.7896,4.7867,4.7907,4.7897,4.7872,4.7878,4.797,4.7979,4.7922,4.8086,4.8018,4.8032,4.8076,4.8097,4.8113,4.8109,4.7848,0,0,0,0,0,4.7726,4.7783,4.7794,4.7888,4.7903,4.7898,4.7927,4.7911,4.7938,4.7948,4.7957,4.7983,4.8032,4.8065,4.811,4.8221,4.8224,4.8273,4.8289,4.8302,4.8314,4.8371,4.8392,4.8167,4.8166,4.8166,0,0,4.7791,4.7807,4.7844,4.7905,4.7924,4.7982,4.7908,4.7973,4.8014,4.7958,4.804,4.8048,4.8075,4.8174,4.8218,4.8184,4.8377,4.8315,4.8325,4.833,4.8383,4.8405,4.8424,4.8173,4.8172,4.8171,0,0,4.7937,4.7956,4.8035,4.8056,4.8086,4.8081,4.81,4.8121,4.8124,4.8206,4.8164,4.8213,4.8298,4.8319,4.834,4.8492,4.8457,4.8508,4.8593,4.8649,4.8667,4.8682,4.8735,4.8754,4.8519,4.8519,4.852,0,4.8013,4.81,4.808,4.8147,4.8174,4.8126,4.8204,4.8225,4.8268,4.8286,4.8249,4.8353,4.8368,4.847,4.8507,4.8527,4.8546,4.8505,4.8666,4.8681,4.8696,4.8745,4.8766,4.8525,4.8525,4.8524,4.8523,0,4.8191,4.8251,4.8312,4.8355,4.8388,4.8461,4.845,4.8486,4.8466,4.8465,4.8548,4.8564,4.8611,4.8634,4.8615,4.8733,4.8711,4.867,4.8602,4.8723,4.877,4.8789,4.8534,4.8532,4.853,4.8528,0,0,4.8393,4.8422,4.8445,4.8463,4.8491,4.8537,4.8606,4.8653,4.8683,4.8714,4.877,4.8842,4.8804,4.8829,4.8811,4.8861,4.8978,4.8813,4.8813,4.8842,4.9106,4.9136,4.9159,4.8955,4.8958,4.8961,4.9103,0,4.8538,4.866,4.8643,4.8759,4.8813,4.8767,4.8827,4.885,4.885,4.8895,4.8894,4.8945,4.8892,4.8906,4.8953,4.8954,4.903,4.8943,4.9005,4.9008,4.8999,4.9183,4.9216,4.935,4.9121,4.9125,4.9127,0,4.8725,4.8763,4.8885,4.8903,4.8925,4.898,4.902,4.9064,4.9088,4.9084,4.9111,4.9084,4.9151,4.9082,4.9173,4.9114,4.9138,4.9142,4.9146,4.9151,4.9074,4.9192,4.9392,4.9412,4.9155,4.9153,4.9151,0,4.8859,4.894,4.9023,4.904,4.9063,4.9102,4.9113,4.9133,4.9162,4.9196,4.9214,4.9255,4.9278,4.931,4.9294,4.9246,4.9387,4.9317,4.9384,4.9385,4.9416,4.9414,4.9622,4.9433,4.9433,4.9433,4.9432,0,4.9023,4.9099,4.9083,4.9134,4.9217,4.9195,4.9277,4.9282,4.93,4.935,4.9312,4.9359,4.9336,4.938,4.9368,4.9444,4.9455,4.9452,4.9448,4.9456,4.9456,4.9471,4.9461,4.9438,4.9437,4.9436,4.9435,0,4.9186,4.9178,4.9265,4.928,4.9285,4.9346,4.9357,4.9404,4.94,4.9464,4.9477,4.9471,4.9522,4.9509,4.9565,4.9556,4.9652,4.9636,4.9644,4.964,4.9707,4.9701,4.9931,4.9959,4.9753,4.9755,4.9757,0,4.9291,4.9349,4.9369,4.94,4.9415,4.9465,4.9494,4.9473,4.9504,4.9535,4.9577,4.9625,4.9661,4.9744,4.9744,4.9785,4.9769,4.9847,4.9775,4.978,4.9769,4.9765,4.977,4.9861,4.9864,4.9866,4.9867,0,4.9479,4.9471,4.9515,4.9557,4.9592,4.9623,4.9651,4.9678,4.966,4.9696,4.9748,4.9776,4.9832,4.9879,4.9916,4.9926,4.9893,4.989,4.9907,4.9915,4.9917,4.9915,4.9682,4.9885,4.9883,4.9882,4.9881,4.988,4.9615,4.9663,4.9685,4.9733,4.9752,4.9779,4.9823,4.9825,4.9868,4.9912,4.9897,4.9955,4.9975,5.0022,5.0036,5.008,5.0051,5.0076,5.0083,5.0089,5.0097,4.9911,5.0087,5.0087,5.0086,5.0086,5.0085,0,4.9799,4.981,4.9855,4.9895,4.9933,4.99,4.9928,4.9962,5.0014,5.0036,5.0073,5.0131,5.0175,5.0178,5.0219,5.0254,5.024,5.0265,5.0262,5.0265,5.0122,5.0102,5.0276,5.0276,5.0276,5.0276,5.0276,5.0276,4.9899,4.9978,4.9973,5.006,5.007,5.0128,5.0147,5.017,5.0187,5.0254,5.0291,5.0293,5.0306,5.0348,5.0386,5.0386,5.0402,5.0434,5.0427,5.0294,5.0275,5.0257,5.0238,5.0438,5.0438,5.0566,5.0567,5.0568]}]]